Location: Lane
(33.5226°N, 79.8788°W)
Time: 20:37:58
(UTC+00:00)

Vanguard 2 Rocket - Pass Details

Date: 10 October 2022
Orbit: 555 x 3321 km, 32.9° (Epoch: 28 November)

Event Time Altitude Azimuth Distance (km) Brightness Sun altitude
Rises 01:00:43 0° 235° (SW) 7,197 12.1 -27.3°
Reaches altitude 10° 01:05:32 10° 233° (SW) 6,258 11.6 -28.3°
Maximum altitude 01:25:30 65° 157° (SSE) 3,160 9.3 -32.3°
Enters shadow 01:30:06 52° 106° (ESE) 3,206 9.1 -33.3°
